COSMOS 2541 (44552 NORAD) Tracking and Keplerian Element Data

This shows tracking and keplerian element data for the satellite.

Feedback or suggestion? Click here.




ElementValue
Catalog44552
NameCOSMOS 2541
Epoch Orbit57
Epoch Day298.18273622
Epoch Year2019
RAAN67.9001
Inclination63.8245
Eccentricity0.6988899
Argument of Perigee269.8541
Mean Anonmoly336.1355
Mean Motion2.00633466
Decay Rate-9.89E-06
L11 44552U 19065A 19298.18273622 -.00000989 00000-0 00000+0 0 9997
L22 44552 63.8245 67.9001 6988899 269.8541 336.1355 2.00633466 573

Live tracking and technical data element details for COSMOS 2541 (NORAD 44552). COSMOS 2541 can be tracked NOW for your location showing map with azimuth and elevation plus other details from your city location.

Track the satellite on the map from your city or location and see movement details for azimuth, elevation, latitude, longitude, range, height, and movement on the map or in text.







IsCatalogInMostPopularTable: catalog: 44552, numindb: 24
Update: records affected: 1



GetName: 44552 COSMOS 2541

Hit Count: updated at: Thu, 12 Dec 2019 00:49:58 GMT